Miscellaneous Local Product
Issued by NWS Hastings, NE

Home | Current Version | Previous Version | Graphics & Text | Print | Product List | Glossary On
Versions: 1 2 3 4 5 6 7 8 9 10 11 12 13 14 15 16 17 18 19 20 21 22 23 24 25 26 27 28 29 30 31 32 33 34 35 36 37 38 39 40 41 42 43 44 45 46 47 48 49 50
000
AXUS43 KGID 252302
MISGRI

GID CWA HOURLY WEATHER ROUNDUP
NATIONAL WEATHER SERVICE HASTINGS NE
500 PM CST TUE NOV 25 2014

NOTE: "FAIR" INDICATES FEW OR NO CLOUDS BELOW 12,000 FEET WITH NO
SIGNIFICANT WEATHER AND/OR OBSTRUCTIONS TO VISIBILITY.

...SOUTH CENTRAL NEBRASKA...

CITY           SKY/WX    TMP DP  RH WIND       PRES   REMARKS
GRAND ISLAND   CLOUDY    45  22  40 S13       29.88F
HASTINGS       CLOUDY    45  19  35 SW8G23    29.88F
KEARNEY        CLOUDY    45  16  31 SW10      29.88S
ORD            CLOUDY    42  27  55 SW15G28   29.82F
YORK           CLOUDY    41  25  52 SW7       29.91F
AURORA         CLOUDY    45  23  42 SW9       29.88F
HOLDREGE       CLOUDY    45  16  32 SW8       29.86S
HEBRON         CLOUDY    47  18  31 SW9       29.94R

...NEBRASKA PANHANDLE...

CITY           SKY/WX    TMP DP  RH WIND       PRES   REMARKS
CHADRON        CLOUDY    49  32  52 NW22G30   29.86R
ALLIANCE       CLOUDY    39  30  70 NW16      29.85R WCI  30
SCOTTSBLUFF    LGT RAIN  36  32  85 NW14      29.89R WCI  27
SIDNEY         CLOUDY    41  26  55 N20       29.87S

...WESTERN AND NORTH CENTRAL NEBRASKA...

CITY           SKY/WX    TMP DP  RH WIND       PRES   REMARKS
VALENTINE      MOCLDY    39  30  70 NW21G26   29.78R WCI  29
AINSWORTH      CLOUDY    41  25  54 SW5       29.76F
ONEILL         CLOUDY    44  24  46 SW10G16   29.79F
BROKEN BOW     CLOUDY    44  25  47 SW13      29.81F
IMPERIAL       CLOUDY    49  19  30 NW8       29.83R
NORTH PLATTE   CLOUDY    42  24  49 W7        29.82S
MCCOOK         CLOUDY    47  20  34 CALM      29.84S

...EASTERN NEBRASKA...

CITY           SKY/WX    TMP DP  RH WIND       PRES   REMARKS
NORFOLK        CLOUDY    42  26  53 S12       29.86S
SO SIOUX CITY  CLOUDY    39  25  57 SE10      29.91F WCI  32
TEKAMAH        CLOUDY    39  25  57 SE10      29.94F WCI  32
COLUMBUS       CLOUDY    43  25  49 S10       29.91S
ALBION         CLOUDY    43  26  52 SW16G24   29.87S
OMAHA EPPLEY   CLOUDY    39  25  57 SE12      29.97F WCI  32
OFFUTT AFB     CLOUDY    39  25  57 SE10      29.96F WCI  32
MILLARD        CLOUDY    42  27  54 SE6       29.96F
LINCOLN        CLOUDY    44  24  45 S9        29.94F
NEBRASKA CITY  CLOUDY    41  21  44 S7        29.99S
BEATRICE       CLOUDY    45  26  47 S8        29.96S
FALLS CITY     CLOUDY    40  23  50 S9        30.01F WCI  34

...NORTHERN KANSAS...

CITY           SKY/WX    TMP DP  RH WIND       PRES   REMARKS
GOODLAND       CLOUDY    47  10  22 SW10      29.87S
HILL CITY      CLOUDY    50  14  23 SW12      29.88F
NORTON         CLOUDY    48   9  20 W6        29.85F
PHILLIPSBURG   CLEAR     52  16  24 S9        29.89S
SMITH CENTER   CLOUDY    45  18  33 S9        29.91S
BELOIT         CLOUDY    48  19  32 S10       29.92F
HAYS           CLOUDY    48  18  29 S13       29.91F
RUSSELL        CLOUDY    48  18  30 S12       29.91F
CONCORDIA      CLOUDY    47  22  37 S9        29.95S
SALINA         CLOUDY    48  24  39 S8        29.98F
TOPEKA         MOCLDY    44  24  45 S7        30.06F



USA.gov is the U.S. government's official web portal to all federal, state and local government web resources and services.